Weather History for Fort Polk, LA

Change the Weather History Date:

Sunday, October 28, 2012

  Actual Average Record
Temperature  
Mean Temperature 50 °F -  
Max Temperature 62 °F 73 °F 86 °F (2004)
Min Temperature 39 °F 53 °F 36 °F (2008)
Degree Days  
Heating Degree Days 14    
Moisture  
Dew Point 33 °F    
Average Humidity 59    
Maximum Humidity 86    
Minimum Humidity 29    
Precipitation  
Precipitation 0.00 in - - ()
Sea Level Pressure  
Sea Level Pressure 30.18 in    
Wind  
Wind Speed 8 mph (North)    
Max Wind Speed 14 mph    
Max Gust Speed 22 mph    
Visibility 10 miles    
Events      
Averages and records for this station are not official NWS values.
T = Trace of Precipitation, MM = Missing Value Source: NWS Daily Summary

Daily Weather History Graph

Daily Weather History Graph

Search for Another Location

Airport:

Trip Planner

Search our weather history database for the weather conditions in past years. The results will help you decide how hot, cold, wet, or windy it might be!

Date:

Astronomy

Oct. 28, 2012 Rise Set
Actual Time 7:25 AM CDT 6:27 PM CDT
Civil Twilight 7:00 AM CDT 6:52 PM CDT
Nautical Twilight 6:31 AM CDT 7:20 PM CDT
Astronomical Twilight 6:03 AM CDT 7:48 PM CDT
Moon 5:45 PM CDT (10/28) 6:20 AM CDT (10/28)
Length of Visible Light 11h 51m
Length of Day
11h 01m
Waxing Gibbous, 99% of the Moon is Illuminated
Oct 28
Waxing Gibbous
Oct 29
Full
Nov 6
Last Quarter
Nov 13
New
Nov 20
First Quarter

Hourly Weather History & Observations

Time (CDT) Temp. Windchill Dew Point Humidity Pressure Visibility Wind Dir Wind Speed Gust Speed Precip Events Conditions
12:55 AM 41.0 °F 37.1 °F 37.0 °F 86% 30.17 in 10.0 mi North 5.8 mph - N/A   Clear
1:55 AM 41.0 °F 37.1 °F 36.0 °F 82% 30.17 in 10.0 mi North 5.8 mph - N/A   Clear
2:55 AM 39.9 °F 35.1 °F 36.0 °F 86% 30.16 in 10.0 mi NNW 6.9 mph - N/A   Clear
3:55 AM 39.9 °F 35.1 °F 35.1 °F 83% 30.15 in 10.0 mi NNW 6.9 mph - N/A   Clear
4:55 AM 39.0 °F 35.7 °F 34.0 °F 82% 30.16 in 10.0 mi North 4.6 mph - N/A   Clear
5:55 AM 39.0 °F 33.4 °F 34.0 °F 82% 30.17 in 10.0 mi North 8.1 mph - N/A   Clear
6:55 AM 39.0 °F 34.0 °F 34.0 °F 82% 30.18 in 10.0 mi North 6.9 mph - N/A   Clear
7:55 AM 39.9 °F 34.5 °F 34.0 °F 79% 30.19 in 10.0 mi North 8.1 mph - N/A   Clear
8:55 AM 45.0 °F 41.8 °F 35.1 °F 68% 30.22 in 10.0 mi North 5.8 mph - N/A   Clear
9:55 AM 50.0 °F - 34.0 °F 54% 30.22 in 10.0 mi North 12.7 mph 20.7 mph N/A   Clear
10:55 AM 54.0 °F - 32.0 °F 43% 30.22 in 10.0 mi NNE 12.7 mph - N/A   Clear
11:55 AM 57.0 °F - 30.9 °F 37% 30.21 in 10.0 mi NNE 8.1 mph 21.9 mph N/A   Clear
12:55 PM 60.1 °F - 30.9 °F 33% 30.20 in 10.0 mi North 12.7 mph 21.9 mph N/A   Clear
1:55 PM 61.0 °F - 30.0 °F 31% 30.17 in 10.0 mi NNW 12.7 mph 19.6 mph N/A   Clear
2:55 PM 62.1 °F - 28.9 °F 29% 30.15 in 10.0 mi North 13.8 mph 19.6 mph N/A   Clear
3:55 PM 62.1 °F - 28.9 °F 29% 30.14 in 10.0 mi North 13.8 mph 20.7 mph N/A   Clear
4:55 PM 61.0 °F - 30.9 °F 32% 30.15 in 10.0 mi North 11.5 mph - N/A   Clear
5:55 PM 57.9 °F - 30.9 °F 36% 30.15 in 10.0 mi NNW 11.5 mph - N/A   Clear
6:55 PM 53.1 °F - 34.0 °F 48% 30.17 in 10.0 mi North 5.8 mph - N/A   Clear
7:55 PM 50.0 °F - 35.1 °F 57% 30.19 in 10.0 mi NNW 5.8 mph - N/A   Clear
8:55 PM 48.9 °F - 35.1 °F 59% 30.20 in 10.0 mi North 5.8 mph - N/A   Clear
9:55 PM 48.0 °F - 35.1 °F 61% 30.21 in 10.0 mi North 3.5 mph - N/A   Clear
10:55 PM 46.9 °F - 35.1 °F 63% 30.23 in 10.0 mi NNW 3.5 mph - N/A   Clear
11:55 PM 41.0 °F 37.1 °F 35.1 °F 79% 30.22 in 10.0 mi North 5.8 mph - N/A   Clear